This demonstration page uses our WeatherBlox Daily Observations layout. Learn more.

39.92423, -83.80882

Hourly Observations for September 26, 2018

Temp ( °F °C ) Dew Point ( °F °C ) Humidity (%) Winds ( mph kmh ) Pressure ( in mb ) Visibility ( mi km ) Precip ( " mm )
12:56 am 00:56 Cloudy 72 22.2 71 21.7 97 97 SSW 10 17 29.93 1014 10 16.0934 0 0.0254
1:56 am 01:56 Cloudy 71 21.7 71 21.7 100 100 SSW 10 17 29.92 1013 10 16.0934 0 0
2:56 am 02:56 Cloudy 72 22.2 71 21.7 97 97 SW 13 20 29.93 1013 10 16.0934 0 0
3:46 am 03:46 Cloudy 72 22 72 22 100 100 SW 10 17 29.88 1012 10 16.0934 0 0
3:56 am 03:56 Cloudy 72 22.2 71 21.7 97 97 SSW 8 13 29.9 1013 10 16.0934 0 0
4:10 am 04:10 Cloudy 72 22 70 21 94 94 SSW 9 15 29.88 1012 10 16.0934 0 0
4:21 am 04:21 Cloudy with Heavy Rain 72 22 72 22 100 100 SW 9 15 29.88 1012 4 6.43736 0.03 0.762
4:29 am 04:29 Cloudy with Heavy Rain 70 21 70 21 100 100 WSW 10 17 29.88 1012 3 4.82802 0.05 1.27
4:38 am 04:38 Cloudy with Heavy Rain 70 21 70 21 100 100 W 13 20 29.88 1012 2.5 4.02335 0.07 1.778
4:43 am 04:43 Cloudy with Nearby Thunderstorms 70 21 70 21 100 100 SW 9 15 29.88 1012 3 4.82802 0.08 2.032
4:56 am 04:56 Cloudy with Nearby Thunderstorms 70 21.1 70 21.1 100 100 WSW 13 20 29.9 1013 5 8.0467 0.11 2.794
5:06 am 05:06 Cloudy with Light Rain 70 21 70 21 100 100 W 15 24 29.88 1012 10 16.0934 0.01 0.254
5:19 am 05:19 Cloudy with Light Rain 70 21 70 21 100 100 W 12 19 29.91 1013 10 16.0934 0.02 0.508
5:27 am 05:27 Cloudy with Light Rain 68 20 68 20 100 100 WSW 12 19 29.91 1013 10 16.0934 0.03 0.762
5:56 am 05:56 Cloudy with Light Rain 67 19.4 67 19.4 100 100 WSW 7 11 29.92 1013 10 16.0934 0.06 1.524
6:37 am 06:37 Cloudy 68 20 68 20 100 100 W 7 11 29.91 1013 10 16.0934 0.02 0.508
6:56 am 06:56 Cloudy 68 20 68 20 100 100 W 8 13 29.93 1014 10 16.0934 0.02 0.508
7:08 am 07:08 Cloudy 68 20 68 20 100 100 WNW 9 15 29.91 1013 9 14.48406 0 0
7:56 am 07:56 Cloudy 67 19.4 67 19.4 100 100 WNW 10 17 29.96 1015 10 16.0934 0.01 0.254
8:19 am 08:19 Cloudy 66 19 66 19 100 100 W 10 17 29.94 1014 10 16.0934 0.01 0.254
8:40 am 08:40 Cloudy 66 19 66 19 100 100 WNW 10 17 29.97 1015 10 16.0934 0.02 0.508
8:56 am 08:56 Cloudy 67 19.4 66 18.9 97 97 WNW 12 19 29.98 1015 10 16.0934 0.02 0.508
9:11 am 09:11 Cloudy 66 19 66 19 100 100 W 7 11 29.97 1015 10 16.0934 0.01 0.254
9:56 am 09:56 Cloudy 68 20 67 19.4 96 96 W 8 13 29.98 1015 10 16.0934 0.01 0.254
10:12 am 10:12 Cloudy 70 21 66 19 88 88 W 10 17 29.97 1015 10 16.0934 0 0
10:27 am 10:27 Cloudy 70 21 66 19 88 88 W 10 17 29.97 1015 10 16.0934 0 0
10:56 am 10:56 Cloudy 66 18.9 63 17.2 90 90 NW 15 24 30.02 1017 10 16.0934 0 0
11:36 am 11:36 Mostly Cloudy 64 18 63 17 94 94 NNW 13 20 30 1016 10 16.0934 0 0
11:43 am 11:43 Mostly Cloudy 64 18 63 17 94 94 NW 15 24 30 1016 10 16.0934 0 0
11:56 am 11:56 Cloudy 64 17.8 61 16.1 90 90 NW 13 20 30.04 1017 10 16.0934 0 0
12:10 pm 12:10 Cloudy 64 18 63 17 94 94 NW 10 17 30.03 1017 10 16.0934 0 0
12:56 pm 12:56 Cloudy 61 16.1 59 15 93 93 NNW 12 19 30.07 1018 9 14.48406 0.01 0.254
1:56 pm 13:56 Cloudy 65 18.3 60 15.6 84 84 WNW 15 24 30.08 1019 10 16.0934 0 0
2:14 pm 14:14 Cloudy 64 18 59 15 83 83 WNW 16 26 30.09 1019 10 16.0934 0 0
2:56 pm 14:56 Partly Cloudy 66 18.9 58 14.4 75 75 W 12 19 30.08 1019 10 16.0934 0 0
3:29 pm 15:29 Cloudy 66 19 57 14 73 73 WNW 9 15 30.06 1018 10 16.0934 0 0
3:47 pm 15:47 Cloudy 66 19 57 14 73 73 W 8 13 30.06 1018 10 16.0934 0 0
3:56 pm 15:56 Cloudy 67 19.4 56 13.3 68 68 WNW 8 13 30.07 1018 10 16.0934 0 0
4:56 pm 16:56 Sunny 68 20 51 10.6 55 55 NNW 12 19 30.06 1018 10 16.0934 0 0
5:56 pm 17:56 Sunny 68 20 51 10.6 55 55 NW 9 15 30.06 1018 10 16.0934 0 0
6:56 pm 18:56 Sunny 64 17.8 49 9.4 58 58 NW 6 9 30.09 1019 10 16.0934 0 0
7:56 pm 19:56 Clear 59 15 50 10 72 72 NW 3 6 30.1 1019 10 16.0934 0 0
8:56 pm 20:56 Clear 58 14.4 48 8.9 70 70 N 6 9 30.11 1020 10 16.0934 0 0
9:56 pm 21:56 Clear 55 12.8 48 8.9 77 77 N 5 7 30.13 1020 10 16.0934 0 0
10:56 pm 22:56 Clear 54 12.2 48 8.9 80 80 NNW 6 9 30.17 1022 10 16.0934 0.01 0.254
11:56 pm 23:56 Clear 55 12.8 48 8.9 77 77 N 7 11 30.16 1021 10 16.0934 0 0

Powered by AerisWeather